Time,TemperatureF,DewpointF,PressureIn,WindDirection,WindDirectionDegrees,WindSpeedMPH,WindSpeedGustMPH,Humidity,HourlyPrecipIn,Conditions,Clouds,dailyrainin,SolarRadiationWatts/m^2,SoftwareType,DateUTC
2014-09-20 00:01:00,57.1,53.6,30.28,South,183,1.0,1.0,88,0.00,,,0.00,0,Wunderground v.1.15,2014-09-20 04:01:00,
2014-09-20 00:11:00,57.0,53.5,30.28,South,171,0.0,4.0,88,0.00,,,0.00,0,Wunderground v.1.15,2014-09-20 04:11:00,
2014-09-20 00:41:00,56.9,53.4,30.27,SSE,168,0.0,0.0,88,0.00,,,0.00,0,Wunderground v.1.15,2014-09-20 04:41:00,
2014-09-20 00:51:00,56.9,53.4,30.27,SSE,168,0.0,0.0,88,0.00,,,0.00,0,Wunderground v.1.15,2014-09-20 04:51:00,
2014-09-20 01:01:00,56.9,53.4,30.28,SSE,165,0.0,0.0,88,0.00,,,0.00,0,Wunderground v.1.15,2014-09-20 05:01:00,
2014-09-20 01:11:00,57.1,53.9,30.27,SSE,164,0.0,0.0,89,0.00,,,0.00,0,Wunderground v.1.15,2014-09-20 05:11:00,
2014-09-20 01:21:00,57.1,53.9,30.27,SSE,150,0.0,0.0,89,0.00,,,0.00,0,Wunderground v.1.15,2014-09-20 05:21:00,
2014-09-20 01:31:00,57.2,54.0,30.27,SSE,150,0.0,0.0,89,0.00,,,0.00,0,Wunderground v.1.15,2014-09-20 05:31:00,
2014-09-20 01:41:00,57.3,54.1,30.27,SSE,150,0.0,0.0,89,0.00,,,0.00,0,Wunderground v.1.15,2014-09-20 05:41:00,
2014-09-20 01:51:00,57.3,54.1,30.27,SSE,149,0.0,0.0,89,0.00,,,0.00,0,Wunderground v.1.15,2014-09-20 05:51:00,
2014-09-20 02:01:00,57.4,54.2,30.26,SSE,150,0.0,0.0,89,0.00,,,0.00,0,Wunderground v.1.15,2014-09-20 06:01:00,
2014-09-20 02:11:00,57.5,54.3,30.26,ESE,121,0.0,0.0,89,0.00,,,0.00,0,Wunderground v.1.15,2014-09-20 06:11:00,
2014-09-20 02:21:00,57.6,54.4,30.26,SE,132,0.0,0.0,89,0.00,,,0.00,0,Wunderground v.1.15,2014-09-20 06:21:00,
2014-09-20 02:31:00,57.7,54.5,30.25,SE,143,0.0,0.0,89,0.00,,,0.00,0,Wunderground v.1.15,2014-09-20 06:31:00,
2014-09-20 02:41:00,57.8,54.6,30.26,South,173,0.0,0.0,89,0.00,,,0.00,0,Wunderground v.1.15,2014-09-20 06:41:00,
2014-09-20 02:51:00,57.9,54.7,30.26,SSE,163,0.0,0.0,89,0.00,,,0.00,0,Wunderground v.1.15,2014-09-20 06:51:00,
2014-09-20 03:01:00,58.0,54.8,30.25,SE,130,0.0,0.0,89,0.00,,,0.00,0,Wunderground v.1.15,2014-09-20 07:01:00,
2014-09-20 03:11:00,58.1,54.9,30.25,SE,130,0.0,0.0,89,0.00,,,0.00,0,Wunderground v.1.15,2014-09-20 07:11:00,
2014-09-20 03:21:00,58.2,55.0,30.26,SSE,147,0.0,0.0,89,0.00,,,0.00,0,Wunderground v.1.15,2014-09-20 07:21:00,
2014-09-20 03:31:00,58.4,55.2,30.26,ESE,119,0.0,0.0,89,0.00,,,0.00,0,Wunderground v.1.15,2014-09-20 07:31:00,
2014-09-20 03:41:00,58.3,55.1,30.26,ESE,119,0.0,0.0,89,0.00,,,0.00,0,Wunderground v.1.15,2014-09-20 07:41:00,
2014-09-20 03:51:00,58.5,55.3,30.25,ESE,119,0.0,0.0,89,0.00,,,0.00,0,Wunderground v.1.15,2014-09-20 07:51:00,
2014-09-20 04:01:00,58.6,55.4,30.25,SSE,165,0.0,0.0,89,0.00,,,0.00,0,Wunderground v.1.15,2014-09-20 08:01:00,
2014-09-20 04:11:00,58.7,55.5,30.25,South,170,0.0,0.0,89,0.00,,,0.00,0,Wunderground v.1.15,2014-09-20 08:11:00,
2014-09-20 04:21:00,58.7,55.5,30.25,SSE,157,0.0,1.0,89,0.00,,,0.00,0,Wunderground v.1.15,2014-09-20 08:21:00,
2014-09-20 04:31:00,58.7,55.5,30.25,SSE,161,0.0,0.0,89,0.00,,,0.00,0,Wunderground v.1.15,2014-09-20 08:31:00,
2014-09-20 04:41:00,58.7,55.5,30.25,South,172,0.0,0.0,89,0.00,,,0.00,0,Wunderground v.1.15,2014-09-20 08:41:00,
2014-09-20 04:51:00,58.6,55.4,30.25,South,172,0.0,0.0,89,0.00,,,0.00,0,Wunderground v.1.15,2014-09-20 08:51:00,
2014-09-20 05:01:00,58.6,55.7,30.25,SSE,167,0.0,0.0,90,0.00,,,0.00,0,Wunderground v.1.15,2014-09-20 09:01:00,
2014-09-20 05:11:00,58.6,55.7,30.24,South,170,0.0,0.0,90,0.00,,,0.00,0,Wunderground v.1.15,2014-09-20 09:11:00,
2014-09-20 05:21:00,58.6,55.4,30.24,South,170,0.0,0.0,89,0.00,,,0.00,0,Wunderground v.1.15,2014-09-20 09:21:00,
2014-09-20 05:31:00,58.6,55.7,30.24,South,169,0.0,0.0,90,0.00,,,0.00,0,Wunderground v.1.15,2014-09-20 09:31:00,
2014-09-20 05:41:00,58.7,55.8,30.24,SSE,168,0.0,0.0,90,0.00,,,0.00,0,Wunderground v.1.15,2014-09-20 09:41:00,
2014-09-20 05:51:00,58.7,55.8,30.24,SSE,153,0.0,0.0,90,0.00,,,0.00,0,Wunderground v.1.15,2014-09-20 09:51:00,
2014-09-20 06:01:00,58.6,55.7,30.24,South,176,0.0,0.0,90,0.00,,,0.00,0,Wunderground v.1.15,2014-09-20 10:01:00,
2014-09-20 06:11:00,58.6,55.7,30.24,South,176,0.0,0.0,90,0.00,,,0.00,0,Wunderground v.1.15,2014-09-20 10:11:00,
2014-09-20 06:21:00,58.6,56.0,30.24,South,176,0.0,0.0,91,0.00,,,0.00,0,Wunderground v.1.15,2014-09-20 10:21:00,
2014-09-20 06:31:00,58.6,56.0,30.24,South,177,0.0,0.0,91,0.00,,,0.00,0,Wunderground v.1.15,2014-09-20 10:31:00,
2014-09-20 06:41:00,58.6,56.0,30.24,South,176,0.0,0.0,91,0.00,,,0.00,0,Wunderground v.1.15,2014-09-20 10:41:00,
2014-09-20 06:51:00,58.6,56.0,30.24,South,177,0.0,0.0,91,0.00,,,0.00,0,Wunderground v.1.15,2014-09-20 10:51:00,
2014-09-20 07:01:00,58.8,56.2,30.24,SSE,159,0.0,0.0,91,0.00,,,0.00,0,Wunderground v.1.15,2014-09-20 11:01:00,
2014-09-20 07:11:00,59.0,56.4,30.24,SSE,159,0.0,0.0,91,0.00,,,0.00,9,Wunderground v.1.15,2014-09-20 11:11:00,
2014-09-20 07:21:00,59.0,56.4,30.24,SSE,161,0.0,0.0,91,0.00,,,0.00,12,Wunderground v.1.15,2014-09-20 11:21:00,
2014-09-20 07:31:00,59.0,56.4,30.24,SSE,161,0.0,0.0,91,0.00,,,0.00,26,Wunderground v.1.15,2014-09-20 11:31:00,
2014-09-20 07:41:00,59.3,56.7,30.24,South,175,0.0,0.0,91,0.00,,,0.00,42,Wunderground v.1.15,2014-09-20 11:41:00,
2014-09-20 07:51:00,59.4,56.5,30.23,SSE,167,0.0,0.0,90,0.00,,,0.00,23,Wunderground v.1.15,2014-09-20 11:51:00,
2014-09-20 08:01:00,59.2,56.3,30.23,SSE,155,1.0,1.0,90,0.00,,,0.00,56,Wunderground v.1.15,2014-09-20 12:01:00,
2014-09-20 08:11:00,59.7,56.8,30.23,South,191,0.0,0.0,90,0.00,,,0.00,167,Wunderground v.1.15,2014-09-20 12:11:00,
2014-09-20 08:22:00,60.8,57.5,30.23,SE,145,0.0,0.0,89,0.00,,,0.00,169,Wunderground v.1.15,2014-09-20 12:22:00,
2014-09-20 08:31:00,61.3,57.4,30.23,South,169,0.0,0.0,87,0.00,,,0.00,274,Wunderground v.1.15,2014-09-20 12:31:00,
2014-09-20 08:41:00,61.6,57.7,30.24,South,170,0.0,0.0,87,0.00,,,0.00,155,Wunderground v.1.15,2014-09-20 12:41:00,
2014-09-20 08:51:00,61.8,57.9,30.24,South,169,0.0,0.0,87,0.00,,,0.00,176,Wunderground v.1.15,2014-09-20 12:51:00,
2014-09-20 09:01:00,62.2,58.0,30.24,South,171,0.0,0.0,86,0.00,,,0.00,221,Wunderground v.1.15,2014-09-20 13:01:00,
2014-09-20 09:11:00,62.4,58.2,30.23,South,171,0.0,0.0,86,0.00,,,0.00,169,Wunderground v.1.15,2014-09-20 13:11:00,
2014-09-20 09:22:00,62.5,58.3,30.24,SE,136,0.0,0.0,86,0.00,,,0.00,149,Wunderground v.1.15,2014-09-20 13:22:00,
2014-09-20 09:31:00,62.9,58.6,30.24,SE,135,0.0,0.0,86,0.00,,,0.00,207,Wunderground v.1.15,2014-09-20 13:31:00,
2014-09-20 09:41:00,63.2,58.6,30.24,SSE,159,0.0,0.0,85,0.00,,,0.00,185,Wunderground v.1.15,2014-09-20 13:41:00,
2014-09-20 09:51:00,63.5,58.9,30.23,South,184,0.0,0.0,85,0.00,,,0.00,176,Wunderground v.1.15,2014-09-20 13:51:00,
2014-09-20 10:01:00,63.9,59.3,30.23,South,184,0.0,0.0,85,0.00,,,0.00,141,Wunderground v.1.15,2014-09-20 14:01:00,
2014-09-20 10:11:00,64.0,59.1,30.23,South,184,0.0,0.0,84,0.00,,,0.00,165,Wunderground v.1.15,2014-09-20 14:11:00,
2014-09-20 10:21:00,65.2,60.2,30.23,South,184,0.0,0.0,84,0.00,,,0.00,251,Wunderground v.1.15,2014-09-20 14:21:00,
2014-09-20 10:31:00,66.0,60.3,30.23,South,169,0.0,0.0,82,0.00,,,0.00,181,Wunderground v.1.15,2014-09-20 14:31:00,
2014-09-20 10:41:00,66.4,60.7,30.22,SSW,192,1.0,1.0,82,0.00,,,0.00,241,Wunderground v.1.15,2014-09-20 14:41:00,
2014-09-20 10:52:00,66.9,60.9,30.22,South,169,0.0,0.0,81,0.00,,,0.00,348,Wunderground v.1.15,2014-09-20 14:52:00,
2014-09-20 11:01:00,67.7,61.7,30.21,SSW,194,0.0,0.0,81,0.00,,,0.00,371,Wunderground v.1.15,2014-09-20 15:01:00,
2014-09-20 11:11:00,68.5,61.7,30.21,SSW,203,1.0,1.0,79,0.00,,,0.00,388,Wunderground v.1.15,2014-09-20 15:11:00,
2014-09-20 11:21:00,69.0,61.9,30.20,NNE,14,1.0,1.0,78,0.00,,,0.00,812,Wunderground v.1.15,2014-09-20 15:21:00,
2014-09-20 11:31:00,69.7,61.8,30.20,WSW,238,2.0,2.0,76,0.00,,,0.00,768,Wunderground v.1.15,2014-09-20 15:31:00,
2014-09-20 11:41:00,69.5,62.0,30.19,SSW,213,1.0,1.0,77,0.00,,,0.00,404,Wunderground v.1.15,2014-09-20 15:41:00,
2014-09-20 11:52:00,69.9,62.0,30.19,West,269,1.0,1.0,76,0.00,,,0.00,364,Wunderground v.1.15,2014-09-20 15:52:00,
2014-09-20 12:01:00,70.3,62.4,30.19,West,259,0.0,0.0,76,0.00,,,0.00,315,Wunderground v.1.15,2014-09-20 16:01:00,
2014-09-20 12:11:00,71.2,62.5,30.18,WSW,250,1.0,1.0,74,0.00,,,0.00,431,Wunderground v.1.15,2014-09-20 16:11:00,
2014-09-20 12:21:00,71.3,62.6,30.17,NNE,13,1.0,1.0,74,0.00,,,0.00,520,Wunderground v.1.15,2014-09-20 16:21:00,
2014-09-20 12:31:00,72.9,63.3,30.17,WSW,242,1.0,2.0,72,0.00,,,0.00,777,Wunderground v.1.15,2014-09-20 16:31:00,
2014-09-20 12:41:00,73.3,63.3,30.16,SSW,200,2.0,4.0,71,0.00,,,0.00,346,Wunderground v.1.15,2014-09-20 16:41:00,
2014-09-20 12:51:00,73.9,63.5,30.15,SSW,211,1.0,1.0,70,0.00,,,0.00,434,Wunderground v.1.15,2014-09-20 16:51:00,
2014-09-20 13:01:00,74.7,63.4,30.15,West,271,2.0,2.0,68,0.00,,,0.00,817,Wunderground v.1.15,2014-09-20 17:01:00,
2014-09-20 13:11:00,74.4,61.9,30.15,West,265,2.0,2.0,65,0.00,,,0.00,287,Wunderground v.1.15,2014-09-20 17:11:00,
2014-09-20 13:31:00,74.5,62.8,30.13,West,280,1.0,3.0,67,0.00,,,0.00,717,Wunderground v.1.15,2014-09-20 17:31:00,
2014-09-20 13:41:00,74.7,62.1,30.13,SSW,210,2.0,2.0,65,0.00,,,0.00,306,Wunderground v.1.15,2014-09-20 17:41:00,
2014-09-20 13:52:00,76.8,63.2,30.12,WSW,238,1.0,1.0,63,0.00,,,0.00,733,Wunderground v.1.15,2014-09-20 17:52:00,
2014-09-20 14:01:00,76.9,62.9,30.12,West,267,1.0,1.0,62,0.00,,,0.00,689,Wunderground v.1.15,2014-09-20 18:01:00,
2014-09-20 14:11:00,77.8,63.3,30.11,NW,306,1.0,1.0,61,0.00,,,0.00,687,Wunderground v.1.15,2014-09-20 18:11:00,
2014-09-20 14:21:00,77.9,62.9,30.10,WNW,284,1.0,1.0,60,0.00,,,0.00,638,Wunderground v.1.15,2014-09-20 18:21:00,
2014-09-20 14:31:00,77.1,62.1,30.10,SSW,201,2.0,8.0,60,0.00,,,0.00,659,Wunderground v.1.15,2014-09-20 18:31:00,
2014-09-20 14:41:00,77.0,62.5,30.09,WSW,241,2.0,2.0,61,0.00,,,0.00,626,Wunderground v.1.15,2014-09-20 18:41:00,
2014-09-20 14:52:00,77.8,63.3,30.09,SW,226,1.0,1.0,61,0.00,,,0.00,599,Wunderground v.1.15,2014-09-20 18:52:00,
2014-09-20 15:01:00,78.0,63.0,30.09,West,278,2.0,2.0,60,0.00,,,0.00,598,Wunderground v.1.15,2014-09-20 19:01:00,
2014-09-20 15:11:00,76.8,62.3,30.09,SW,219,1.0,5.0,61,0.00,,,0.00,204,Wunderground v.1.15,2014-09-20 19:11:00,
2014-09-20 15:22:00,75.6,61.7,30.09,WSW,242,2.0,3.0,62,0.00,,,0.00,243,Wunderground v.1.15,2014-09-20 19:22:00,
2014-09-20 15:31:00,75.5,62.0,30.08,West,271,1.0,3.0,63,0.00,,,0.00,253,Wunderground v.1.15,2014-09-20 19:31:00,
2014-09-20 15:41:00,75.6,61.7,30.08,SW,227,2.0,2.0,62,0.00,,,0.00,492,Wunderground v.1.15,2014-09-20 19:41:00,
2014-09-20 15:51:00,76.4,62.0,30.07,West,281,3.0,3.0,61,0.00,,,0.00,466,Wunderground v.1.15,2014-09-20 19:51:00,
2014-09-20 16:01:00,77.3,62.8,30.07,West,261,2.0,2.0,61,0.00,,,0.00,457,Wunderground v.1.15,2014-09-20 20:01:00,
2014-09-20 16:11:00,77.8,62.3,30.07,SW,231,1.0,1.0,59,0.00,,,0.00,406,Wunderground v.1.15,2014-09-20 20:11:00,
2014-09-20 16:22:00,77.9,62.4,30.07,SW,236,1.0,4.0,59,0.00,,,0.00,403,Wunderground v.1.15,2014-09-20 20:22:00,
2014-09-20 16:31:00,77.1,62.1,30.07,SW,233,1.0,4.0,60,0.00,,,0.00,149,Wunderground v.1.15,2014-09-20 20:31:00,
2014-09-20 16:41:00,76.2,61.8,30.06,WSW,237,3.0,3.0,61,0.00,,,0.00,348,Wunderground v.1.15,2014-09-20 20:41:00,
2014-09-20 16:51:00,77.2,62.7,30.05,WSW,251,1.0,1.0,61,0.00,,,0.00,283,Wunderground v.1.15,2014-09-20 20:51:00,
2014-09-20 17:01:00,77.1,62.1,30.06,West,280,1.0,1.0,60,0.00,,,0.00,257,Wunderground v.1.15,2014-09-20 21:01:00,
2014-09-20 17:11:00,76.7,62.2,30.05,WSW,244,1.0,1.0,61,0.00,,,0.00,288,Wunderground v.1.15,2014-09-20 21:11:00,
2014-09-20 17:21:00,77.6,62.6,30.05,WNW,284,0.0,0.0,60,0.00,,,0.00,292,Wunderground v.1.15,2014-09-20 21:21:00,
2014-09-20 17:31:00,77.5,63.0,30.05,West,271,1.0,5.0,61,0.00,,,0.00,179,Wunderground v.1.15,2014-09-20 21:31:00,
2014-09-20 17:41:00,76.3,62.8,30.04,SW,231,1.0,4.0,63,0.00,,,0.00,171,Wunderground v.1.15,2014-09-20 21:41:00,
2014-09-20 17:51:00,76.6,63.5,30.04,WSW,248,0.0,0.0,64,0.00,,,0.00,128,Wunderground v.1.15,2014-09-20 21:51:00,
2014-09-20 18:01:00,76.1,63.5,30.04,SW,236,0.0,0.0,65,0.00,,,0.00,70,Wunderground v.1.15,2014-09-20 22:01:00,
2014-09-20 18:11:00,75.5,63.3,30.04,WSW,248,0.0,0.0,66,0.00,,,0.00,58,Wunderground v.1.15,2014-09-20 22:11:00,
2014-09-20 18:22:00,74.4,63.1,30.04,WSW,237,1.0,1.0,68,0.00,,,0.00,42,Wunderground v.1.15,2014-09-20 22:22:00,
2014-09-20 18:31:00,73.6,62.4,30.04,SW,224,1.0,1.0,68,0.00,,,0.00,30,Wunderground v.1.15,2014-09-20 22:31:00,
2014-09-20 18:41:00,72.7,61.9,30.03,South,188,0.0,0.0,69,0.00,,,0.00,19,Wunderground v.1.15,2014-09-20 22:41:00,
2014-09-20 18:51:00,72.0,61.7,30.03,SW,216,0.0,0.0,70,0.00,,,0.00,9,Wunderground v.1.15,2014-09-20 22:51:00,
2014-09-20 19:01:00,71.3,61.4,30.02,SSW,212,0.0,0.0,71,0.00,,,0.00,5,Wunderground v.1.15,2014-09-20 23:01:00,
2014-09-20 19:11:00,71.0,61.5,30.02,WSW,241,1.0,1.0,72,0.00,,,0.00,0,Wunderground v.1.15,2014-09-20 23:11:00,
2014-09-20 19:21:00,70.7,61.2,30.02,West,263,2.0,4.0,72,0.00,,,0.00,0,Wunderground v.1.15,2014-09-20 23:21:00,
2014-09-20 19:31:00,70.4,60.9,30.02,WSW,246,2.0,2.0,72,0.00,,,0.00,0,Wunderground v.1.15,2014-09-20 23:31:00,
2014-09-20 19:41:00,69.9,60.8,30.02,West,263,1.0,1.0,73,0.00,,,0.00,0,Wunderground v.1.15,2014-09-20 23:41:00,
2014-09-20 19:51:00,69.2,60.6,30.02,WSW,237,0.0,0.0,74,0.00,,,0.00,0,Wunderground v.1.15,2014-09-20 23:51:00,
2014-09-20 20:01:00,69.0,60.4,30.02,WSW,250,0.0,0.0,74,0.00,,,0.00,0,Wunderground v.1.15,2014-09-21 00:01:00,
2014-09-20 20:11:00,68.5,59.5,30.02,WSW,248,0.0,0.0,73,0.00,,,0.00,0,Wunderground v.1.15,2014-09-21 00:11:00,
2014-09-20 20:21:00,68.0,59.4,30.03,WSW,244,0.0,0.0,74,0.00,,,0.00,0,Wunderground v.1.15,2014-09-21 00:21:00,
2014-09-20 20:31:00,67.5,59.3,30.03,SW,225,0.0,0.0,75,0.00,,,0.00,0,Wunderground v.1.15,2014-09-21 00:31:00,
2014-09-20 20:41:00,67.0,59.2,30.03,SW,215,0.0,0.0,76,0.00,,,0.00,0,Wunderground v.1.15,2014-09-21 00:41:00,
2014-09-20 20:51:00,66.5,59.1,30.03,SW,216,0.0,0.0,77,0.00,,,0.00,0,Wunderground v.1.15,2014-09-21 00:51:00,
2014-09-20 21:01:00,65.9,59.2,30.03,SW,216,0.0,0.0,79,0.00,,,0.00,0,Wunderground v.1.15,2014-09-21 01:01:00,
2014-09-20 21:11:00,65.6,58.9,30.03,SW,215,0.0,0.0,79,0.00,,,0.00,0,Wunderground v.1.15,2014-09-21 01:11:00,
2014-09-20 21:22:00,65.2,59.2,30.03,SW,215,0.0,0.0,81,0.00,,,0.00,0,Wunderground v.1.15,2014-09-21 01:22:00,
2014-09-20 21:31:00,64.8,59.2,30.02,SW,215,0.0,0.0,82,0.00,,,0.00,0,Wunderground v.1.15,2014-09-21 01:31:00,
2014-09-20 21:41:00,64.5,59.2,30.02,South,176,0.0,0.0,83,0.00,,,0.00,0,Wunderground v.1.15,2014-09-21 01:41:00,
2014-09-20 21:52:00,64.3,59.4,30.02,South,175,0.0,0.0,84,0.00,,,0.00,0,Wunderground v.1.15,2014-09-21 01:52:00,
2014-09-20 22:01:00,64.2,59.6,30.02,South,169,0.0,0.0,85,0.00,,,0.00,0,Wunderground v.1.15,2014-09-21 02:01:00,
2014-09-20 22:11:00,64.2,59.6,30.03,South,170,0.0,0.0,85,0.00,,,0.00,0,Wunderground v.1.15,2014-09-21 02:11:00,
2014-09-20 22:22:00,63.6,59.0,30.03,South,170,0.0,0.0,85,0.00,,,0.00,0,Wunderground v.1.15,2014-09-21 02:22:00,
2014-09-20 22:31:00,63.0,59.1,30.03,South,170,0.0,0.0,87,0.00,,,0.00,0,Wunderground v.1.15,2014-09-21 02:31:00,
2014-09-20 22:41:00,62.5,58.6,30.03,South,169,0.0,0.0,87,0.00,,,0.00,0,Wunderground v.1.15,2014-09-21 02:41:00,